[[{"header":{"parameterUnit":"m.s-1","parameterCategory":1,"la1":30.2991,"la2":30.254,"lo1":-89.0895,"lo2":-89.0444,"dy":0.0017,"dx":0.0017,"nx":28,"ny":28,"refTime":"2024-07-09T21:00:00:Z","depth":0,"parameterNumber":2,"parameterNumberName":"U-component_of_WINDS"},"data":[0,0,0,0,0,0,0,0,0,0,0,0,0,0,0,0,0,0,0,0,0,0,0,0,0,0,0,0,0,0,0,0,0,0,0,0,0,0,0,0,0,0,0,0,0,0,0,0,0,0,0,0,0,0,0,0,0,0,4.2454,4.2455,0,4.2591,4.2592,4.2594,4.2551,4.2548,4.2545,4.2542,4.2684,4.269,4.2696,0,0,0,0,0,0,0,0,0,0,0,0,0,4.2152,4.2158,4.2454,4.2455,4.2457,4.2591,4.2592,4.2594,4.2552,4.2548,4.2544,4.2541,4.2681,4.2689,4.2697,0,0,0,0,0,0,0,0,0,0,0,0,0,4.2286,4.216,4.2453,4.2452,4.2453,4.259,4.2592,4.2595,4.2552,4.2548,4.2544,4.2539,4.2679,4.2688,4.2698,4.2845,0,0,4.2728,4.2732,0,0,0,0,0,0,0,0,4.2278,4.2297,4.245,4.2452,4.2454,4.2549,4.2538,4.2679,4.2553,4.2515,4.2542,4.2537,4.2642,4.2655,4.269,4.2852,4.2858,4.2728,4.2734,4.2738,4.2741,0,0,0,0,0,0,0,4.2269,4.2291,4.2508,4.2453,4.2455,4.2443,4.2458,4.2564,4.2601,4.2518,4.2515,4.2532,4.2643,4.2681,4.2693,4.286,4.2728,4.2737,4.2743,4.2747,4.3144,4.3149,0,0,0,0,0,0,4.2259,4.2283,4.2503,4.2512,4.2353,4.2452,4.2468,4.2523,4.26,4.2608,4.2535,4.2529,4.2667,4.2682,4.2698,4.2872,4.2738,4.2747,4.2753,4.3139,4.3145,4.315,0,0,0,0,0,0,4.2253,4.2279,4.2498,4.2397,4.2424,4.2462,4.2524,4.2528,4.2566,4.2613,4.262,4.2568,4.2664,4.2684,4.2808,4.2876,4.2752,4.2761,4.3134,4.3141,4.3148,4.3223,0,0,0,0,0,0,4.2244,4.2277,4.2334,4.2399,4.243,4.2606,4.2529,4.2534,4.2583,4.2576,4.2646,4.2653,4.2662,4.2793,4.2817,4.2887,4.2768,4.3128,4.3137,4.3145,4.3214,4.3232,4.3247,0,0,0,0,0,4.2234,4.2351,4.2337,4.2364,4.2502,4.261,4.2628,4.2636,4.2589,4.2646,4.2675,4.2651,4.2865,4.2806,4.2833,4.2907,4.3123,4.3134,4.3145,4.3207,4.3228,4.3246,0,0,0,0,0,0,4.2294,4.2359,4.2345,4.2487,4.2543,4.2603,4.2675,4.2659,4.273,4.2721,4.2728,4.2744,4.2869,4.2901,4.2834,4.3051,4.2987,4.3004,4.3026,4.3046,4.3062,4.3051,4.2776,0,0,0,0,0,4.2324,4.2407,4.246,4.258,4.2608,4.2637,4.2685,4.2686,4.2744,4.2768,4.2807,4.2865,4.2945,4.2998,4.3074,4.3219,4.3232,4.3283,4.3299,4.3312,4.3325,4.34,4.3423,4.3185,4.3185,4.3185,0,0,4.2387,4.2432,4.2485,4.2593,4.2637,4.2721,4.2657,4.2751,4.2813,4.2783,4.29,4.2931,4.2996,4.3129,4.319,4.3159,4.3394,4.3326,4.3336,4.3342,4.3414,4.3436,4.3456,4.3193,4.3191,4.319,0,0,4.2543,4.2588,4.269,4.2735,4.2801,4.2819,4.2844,4.2906,4.2924,4.3042,4.302,4.3094,4.3233,4.3279,4.3321,4.3491,4.347,4.3516,4.3599,4.3672,4.3691,4.3707,4.3765,4.3786,4.353,4.353,4.353,0,4.2612,4.2739,4.2745,4.2839,4.2886,4.2861,4.2964,4.3007,4.3096,4.3128,4.3093,4.3263,4.3306,4.3448,4.3489,4.3525,4.3551,4.3507,4.3688,4.3704,4.372,4.3775,4.3797,4.3535,4.3534,4.3534,4.3533,0,4.2819,4.2907,4.2982,4.3066,4.3122,4.322,4.324,4.3295,4.3291,4.3312,4.343,4.348,4.3564,4.3599,4.3596,4.374,4.3718,4.3685,4.3621,4.3747,4.3798,4.382,4.3542,4.354,4.3539,4.3538,0,0,4.3018,4.3103,4.313,4.3166,4.3236,4.3304,4.34,4.3482,4.3527,4.3589,4.3668,4.3784,4.3753,4.38,4.3803,4.3867,4.3994,4.3826,4.3828,4.3853,4.4151,4.4173,4.4197,4.3981,4.3985,4.3989,4.4144,0,4.3178,4.3346,4.3353,4.3506,4.3585,4.3561,4.3644,4.3696,4.3718,4.3787,4.3812,4.3892,4.3847,4.3875,4.3938,4.3966,4.4054,4.3955,4.4052,4.4056,4.4034,4.4225,4.4249,4.4394,4.4165,4.4168,4.4171,0,4.3387,4.3453,4.3613,4.3668,4.3702,4.3777,4.385,4.3918,4.3975,4.3986,4.4037,4.4029,4.4125,4.4058,4.4189,4.4122,4.4162,4.4182,4.4187,4.4195,4.4119,4.4235,4.4441,4.4461,4.4203,4.4201,4.4198,0,4.3512,4.3641,4.3752,4.3784,4.3853,4.3905,4.3936,4.3989,4.4036,4.41,4.413,4.4206,4.4246,4.4304,4.4316,4.4267,4.4446,4.4381,4.4455,4.4455,4.4492,4.449,4.4705,4.4524,4.4523,4.4523,4.4522,0,4.3688,4.3786,4.3808,4.3877,4.3985,4.3991,4.4098,4.4125,4.4171,4.4243,4.4229,4.4296,4.4309,4.4379,4.4389,4.4494,4.4514,4.4523,4.4524,4.4523,4.4521,4.4548,4.4537,4.4529,4.4527,4.4526,4.4525,0,4.3845,4.3864,4.3983,4.4038,4.4053,4.413,4.4176,4.4241,4.426,4.4351,4.4372,4.4403,4.4484,4.4502,4.4599,4.4606,4.4729,4.4722,4.4709,4.4708,4.478,4.4771,4.5018,4.5049,4.485,4.4851,4.4853,0,4.3954,4.4029,4.409,4.4137,4.417,4.4246,4.4293,4.4302,4.4352,4.442,4.4476,4.4555,4.4619,4.475,4.478,4.4853,4.4846,4.4927,4.4857,4.4852,4.4843,4.4837,4.4843,4.4939,4.4942,4.4943,4.4945,0,4.4146,4.4151,4.422,4.4292,4.4348,4.4405,4.446,4.4499,4.4514,4.4571,4.4653,4.4702,4.48,4.4878,4.4951,4.4982,4.4965,4.4967,4.4987,4.4985,4.4974,4.4977,4.4742,4.4961,4.4959,4.4958,4.4957,4.4956,4.428,4.4344,4.4396,4.4472,4.4513,4.4564,4.4626,4.4652,4.472,4.4799,4.4801,4.489,4.4941,4.5037,4.5073,4.5141,4.5116,4.5147,4.5154,4.516,4.5165,4.4965,4.5155,4.5155,4.5154,4.5154,4.5154,0,4.4468,4.4499,4.457,4.4645,4.4704,4.4683,4.4741,4.4792,4.487,4.492,4.4982,4.5075,4.515,4.5185,4.5259,4.5307,4.5301,4.5325,4.532,4.5327,4.5185,4.5159,4.5329,4.5329,4.5329,4.5329,4.5328,4.5328,4.4572,4.4677,4.4688,4.4812,4.4843,4.4929,4.4964,4.5009,4.5048,4.5152,4.5214,4.5236,4.5279,4.5355,4.5422,4.543,4.5457,4.5485,4.5489,4.5356,4.5338,4.5321,4.5295,4.5491,4.5491,4.5624,4.5626,4.5627]},{"header":{"parameterUnit":"m.s-1","parameterCategory":1,"la1":30.2991,"la2":30.254,"lo1":-89.0895,"lo2":-89.0444,"dy":0.0017,"dx":0.0017,"nx":28,"ny":28,"refTime":"2024-07-09T21:00:00:Z","depth":0,"parameterNumber":3,"parameterNumberName":"V-component_of_WINDS"},"data":[0,0,0,0,0,0,0,0,0,0,0,0,0,0,0,0,0,0,0,0,0,0,0,0,0,0,0,0,0,0,0,0,0,0,0,0,0,0,0,0,0,0,0,0,0,0,0,0,0,0,0,0,0,0,0,0,0,0,5.0953,5.0955,0,5.1066,5.1067,5.1068,5.1029,5.1027,5.1024,5.1022,5.1134,5.1139,5.1144,0,0,0,0,0,0,0,0,0,0,0,0,0,5.0699,5.0704,5.0953,5.0955,5.0956,5.1065,5.1067,5.1069,5.1029,5.1026,5.1023,5.1021,5.1132,5.1138,5.1144,0,0,0,0,0,0,0,0,0,0,0,0,0,5.0811,5.0706,5.0953,5.095,5.0951,5.1065,5.1067,5.1069,5.103,5.1026,5.1023,5.1019,5.113,5.1137,5.1145,5.1269,0,0,5.1169,5.1173,0,0,0,0,0,0,0,0,5.0804,5.082,5.0949,5.095,5.0951,5.103,5.1018,5.1136,5.1031,5.1,5.1022,5.1017,5.1102,5.1112,5.1141,5.1274,5.1279,5.117,5.1175,5.1178,5.1181,0,0,0,0,0,0,0,5.0797,5.0815,5.0998,5.0951,5.0952,5.0941,5.0953,5.1041,5.107,5.1002,5.1,5.1014,5.1102,5.1133,5.1143,5.128,5.117,5.1177,5.1182,5.1185,5.1516,5.1519,0,0,0,0,0,0,5.0789,5.0809,5.0994,5.1001,5.0867,5.0949,5.0962,5.1008,5.1069,5.1075,5.1017,5.1012,5.1122,5.1134,5.1147,5.1293,5.1178,5.1186,5.119,5.1512,5.1516,5.1521,0,0,0,0,0,0,5.0784,5.0806,5.099,5.0904,5.0927,5.0957,5.101,5.1012,5.1044,5.108,5.1085,5.1044,5.1119,5.1136,5.1238,5.1296,5.1189,5.1197,5.1507,5.1513,5.1519,5.1587,0,0,0,0,0,0,5.0777,5.0804,5.0853,5.0906,5.0931,5.1081,5.1013,5.1017,5.1058,5.1052,5.1107,5.1112,5.1118,5.1226,5.1246,5.1305,5.1203,5.1502,5.151,5.1517,5.1579,5.1594,5.1607,0,0,0,0,0,5.0768,5.0868,5.0856,5.0878,5.0993,5.1084,5.1099,5.1104,5.1063,5.1111,5.1134,5.1111,5.1287,5.1237,5.1259,5.1321,5.1498,5.1507,5.1516,5.1573,5.1591,5.1607,0,0,0,0,0,0,5.0821,5.0875,5.0862,5.0983,5.1029,5.1077,5.1138,5.1123,5.1182,5.1174,5.1176,5.1188,5.1293,5.1317,5.1261,5.1442,5.1386,5.14,5.1422,5.144,5.1453,5.1445,5.1209,0,0,0,0,0,5.0847,5.0918,5.096,5.1062,5.1086,5.1108,5.1148,5.1148,5.1196,5.1215,5.1245,5.1291,5.1356,5.1399,5.1462,5.1583,5.1592,5.1636,5.165,5.1661,5.1673,5.1735,5.1754,5.155,5.155,5.155,0,0,5.0901,5.0939,5.0984,5.1074,5.111,5.1181,5.1125,5.1204,5.1256,5.1226,5.1324,5.1348,5.1399,5.151,5.1561,5.1534,5.1731,5.1673,5.1681,5.1687,5.1746,5.1765,5.1782,5.1557,5.1556,5.1555,0,0,5.1035,5.1073,5.116,5.1197,5.1252,5.1266,5.1286,5.1337,5.1351,5.145,5.1428,5.1489,5.1603,5.1639,5.1672,5.1817,5.1797,5.1837,5.1909,5.197,5.1986,5.2,5.2049,5.2067,5.1849,5.1849,5.1849,0,5.1095,5.1203,5.1207,5.1286,5.1325,5.1302,5.1389,5.1424,5.1497,5.1523,5.1492,5.1632,5.1665,5.1783,5.1818,5.1847,5.1868,5.1831,5.1984,5.1998,5.2011,5.2058,5.2077,5.1853,5.1853,5.1852,5.1852,0,5.1272,5.1347,5.1411,5.1481,5.1527,5.1611,5.1625,5.1671,5.1665,5.1681,5.178,5.1818,5.1886,5.1915,5.1911,5.2031,5.2012,5.1983,5.1926,5.2035,5.2079,5.2097,5.186,5.1858,5.1857,5.1856,0,0,5.1445,5.1514,5.1538,5.1568,5.1626,5.1682,5.1763,5.183,5.1868,5.1918,5.1983,5.2079,5.2051,5.2088,5.2088,5.2141,5.225,5.2105,5.2106,5.2128,5.2381,5.2402,5.2423,5.2237,5.224,5.2243,5.2376,0,5.1582,5.1725,5.1729,5.1858,5.1925,5.1903,5.1972,5.2014,5.203,5.2088,5.2105,5.2172,5.2132,5.2154,5.2206,5.2226,5.23,5.2216,5.2296,5.2298,5.2282,5.2446,5.2469,5.2593,5.2393,5.2396,5.2399,0,5.1762,5.1817,5.1953,5.1998,5.2027,5.2089,5.2149,5.2206,5.2251,5.2259,5.23,5.2291,5.237,5.2311,5.2419,5.2362,5.2394,5.2408,5.2413,5.242,5.2354,5.2455,5.2633,5.265,5.2426,5.2424,5.2422,0,5.1871,5.1979,5.2074,5.2101,5.2156,5.22,5.2225,5.2267,5.2306,5.2358,5.2383,5.2443,5.2476,5.2522,5.2528,5.2485,5.2635,5.2578,5.2641,5.2641,5.2673,5.2671,5.2856,5.2697,5.2696,5.2696,5.2696,0,5.2023,5.2107,5.2123,5.2181,5.2273,5.2276,5.2366,5.2387,5.2424,5.2484,5.2468,5.2524,5.2529,5.2587,5.2592,5.2678,5.2693,5.27,5.27,5.2701,5.27,5.2721,5.2712,5.2701,5.27,5.2699,5.2698,0,5.216,5.2175,5.2276,5.232,5.2333,5.2398,5.2435,5.2489,5.2502,5.2578,5.2596,5.2617,5.2683,5.2694,5.2772,5.2775,5.2878,5.287,5.2863,5.2861,5.2923,5.2916,5.3128,5.3154,5.2979,5.2981,5.2982,0,5.2256,5.2319,5.2369,5.2409,5.2436,5.25,5.2539,5.2543,5.2584,5.2639,5.2686,5.275,5.2802,5.2908,5.2929,5.2988,5.298,5.305,5.2988,5.2986,5.2978,5.2973,5.2978,5.3061,5.3063,5.3065,5.3066,0,5.2423,5.2426,5.2484,5.2544,5.2591,5.2639,5.2683,5.2716,5.2725,5.2772,5.2839,5.288,5.2958,5.3021,5.3079,5.3102,5.3085,5.3085,5.3102,5.3103,5.3095,5.3098,5.2893,5.308,5.3079,5.3078,5.3077,5.3076,5.254,5.2595,5.2638,5.2702,5.2735,5.2777,5.2829,5.2849,5.2905,5.297,5.2969,5.3042,5.3082,5.3157,5.3184,5.324,5.3217,5.3243,5.3249,5.3255,5.326,5.3088,5.3251,5.325,5.325,5.325,5.3249,0,5.2704,5.273,5.2789,5.2852,5.2901,5.2882,5.2929,5.2971,5.3036,5.3076,5.3127,5.3202,5.3263,5.3288,5.3347,5.3386,5.3379,5.3401,5.3397,5.3402,5.3278,5.3257,5.3405,5.3405,5.3405,5.3405,5.3405,5.3405,5.2795,5.2885,5.2893,5.2998,5.3023,5.3095,5.3123,5.316,5.3192,5.3277,5.3327,5.3344,5.3376,5.3437,5.349,5.3496,5.3517,5.3542,5.3544,5.3427,5.3412,5.3396,5.3376,5.3547,5.3547,5.3663,5.3664,5.3665]}]]